This is the latest recevied weather packets stored in our database for station/object W1RCY. If no packets are shown the sender has not sent any weather packets the latest 10 day(s).
| Time | Temp. | Humidity | Pressure | Rain* | Wind** | Luminosity | Snow |
|---|---|---|---|---|---|---|---|
| 1777314963 | 22.78° C | 35% | 1022.8 hPa | 0 mm | - | 690 W/m² | - |
| 1777314658 | 22.22° C | 34% | 1022.8 hPa | 0 mm | - | 687 W/m² | - |
| 1777314355 | 22.78° C | 34% | 1022.6 hPa | 0 mm | - | 693 W/m² | - |
| 1777314053 | 22.22° C | 36% | 1022.5 hPa | 0 mm | - | 698 W/m² | - |
| 1777313750 | 20° C | 38% | 1022.6 hPa | 0 mm | - | 698 W/m² | - |
| 1777313447 | 20.56° C | 37% | 1022.8 hPa | 0 mm | - | 701 W/m² | - |
| 1777313145 | 20.56° C | 37% | 1022.6 hPa | 0 mm | - | 684 W/m² | - |
| 1777312840 | 20.56° C | 35% | 1022.7 hPa | 0 mm | - | 665 W/m² | - |
| 1777312537 | 21.11° C | 35% | 1022.7 hPa | 0 mm | - | 650 W/m² | - |
| 1777312234 | 21.67° C | 35% | 1022.5 hPa | 0 mm | - | 682 W/m² | - |
| 1777311931 | 21.11° C | 35% | 1022.6 hPa | 0 mm | - | 717 W/m² | - |
| 1777311628 | 20.56° C | 36% | 1022.5 hPa | 0 mm | - | 713 W/m² | - |
| 1777311326 | 20.56° C | 36% | 1022.6 hPa | 0 mm | - | 718 W/m² | - |
| 1777311023 | 21.67° C | 35% | 1022.8 hPa | 0 mm | - | 711 W/m² | - |
| 1777310721 | 21.11° C | 35% | 1022.9 hPa | 0 mm | - | 711 W/m² | - |
| 1777310418 | 22.22° C | 34% | 1023.1 hPa | 0 mm | - | 716 W/m² | - |
| 1777310115 | 21.67° C | 36% | 1023.2 hPa | 0 mm | - | 727 W/m² | - |
| 1777309813 | 20.56° C | 37% | 1023 hPa | 0 mm | - | 717 W/m² | - |
| 1777309510 | 20° C | 38% | 1023 hPa | 0 mm | - | 718 W/m² | - |
| 1777309207 | 20° C | 38% | 1022.9 hPa | 0 mm | - | 726 W/m² | - |
| 1777308906 | 20° C | 37% | 1023.1 hPa | 0 mm | - | 730 W/m² | - |
| 1777308600 | 20.56° C | 38% | 1023.3 hPa | 0 mm | - | 724 W/m² | - |
| 1777308296 | 19.44° C | 38% | 1023.2 hPa | 0 mm | - | 720 W/m² | - |
| 1777307992 | 20.56° C | 38% | 1023.1 hPa | 0 mm | - | 727 W/m² | - |
| 1777307690 | 20° C | 38% | 1023.2 hPa | 0 mm | - | 732 W/m² | - |
* Rain latest hour (hover to see other rain measurements)
** Current wind speed in m/s (hover to see current wind gust speed)